Volver al catálogo

SL-12 DEB

ActivoHEO
NORAD 39800·DEBRIS·🇷🇺 Russia

Lanzado Sep 25, 2008 desde Baikonur Cosmodrome

Loading…

Próximos Pases (próximas 24 horas)

TLE

ActualizadoSource: Space-Track

Época: Sep 14, 2026, 02:14 UTC

1 39800U 08046M   26257.09346087  .00000038  00000-0  40622-3 0  9995
2 39800  65.2236 329.5424 5680043 246.1331  46.0406  4.24167703190308

Sigue SL-12 DEB en tiempo real con AllMySat

Download on the App Store